Wind_Speed
16 17 17 16 16 16 17 17 17 18 18 18 18 18 17 18 18 18 18 19 19 19 19 20 20 21 21 21 21 21 20 20 19 19 20 20 20 20 20 20 19 18 18
17 17 17 17 17 17 18 18 18 18 18 18 18 18 18 18 19 19 19 19 19 20 20 20 21 21 21 21 21 21 20 21 21 20 20 21 21 21 21 20 19 18 18
18 18 19 18 18 19 18 18 19 18 19 19 20 19 19 20 20 20 21 20 20 20 20 20 21 21 20 21 21 21 21 22 22 21 21 22 23 23 23 22 21 20 20
19 19 19 19 19 19 19 19 19 20 20 20 20 20 20 21 21 21 21 21 21 21 21 21 21 21 21 21 22 22 22 23 23 23 23 22 23 23 23 23 22 22 22
20 19 20 19 19 19 19 19 20 21 21 21 21 21 22 22 23 23 23 22 22 22 22 22 21 22 22 22 22 23 23 23 23 24 24 23 23 23 22 22 22 22 22
22 21 20 20 19 19 20 20 21 22 22 22 22 22 22 22 23 23 23 23 23 22 23 23 23 23 23 23 24 24 24 24 24 23 23 23 23 23 23 22 22 22 21
23 22 22 21 21 21 21 21 22 22 22 22 23 22 22 23 23 23 23 23 23 23 23 24 24 24 24 24 24 25 25 24 24 24 24 23 24 24 24 24 23 23 22
23 23 23 23 23 23 23 23 22 22 22 22 23 23 23 24 24 24 24 24 25 24 24 24 24 24 24 24 24 25 25 25 24 24 24 23 24 24 24 24 24 23 23
24 24 24 24 23 23 23 22 22 22 22 22 23 23 24 24 24 25 25 25 25 25 25 25 25 25 25 24 25 25 25 24 24 23 23 24 24 24 24 24 24 23 23
24 24 25 24 23 23 23 23 23 23 23 23 23 24 24 24 25 25 25 25 25 26 26 26 26 26 26 26 25 25 24 23 22 22 23 23 23 23 24 24 24 23 23
26 25 25 24 24 23 24 24 24 24 24 24 24 24 25 25 25 25 26 25 25 26 26 26 27 27 27 27 26 25 23 23 22 23 24 24 24 24 24 24 24 24 23
26 26 24 24 24 24 25 25 25 25 25 26 25 25 26 26 26 26 26 26 26 26 26 26 27 27 27 27 26 25 24 22 22 23 24 24 24 24 24 24 24 24 24
25 25 25 25 25 25 25 25 26 26 26 26 26 26 26 27 27 27 27 28 27 27 27 26 26 26 26 26 26 24 23 22 22 23 24 24 24 24 24 25 24 24 24
25 25 25 25 25 26 26 26 26 26 26 26 26 26 26 27 27 27 28 28 27 26 25 25 25 25 25 24 24 24 23 22 22 23 23 23 23 23 24 25 25 25 24
25 26 27 27 28 27 26 26 26 26 26 25 25 25 26 26 26 26 27 27 25 24 24 24 25 25 24 25 24 23 22 22 22 23 23 22 23 23 24 25 24 24 24
25 26 26 26 27 27 26 26 26 27 26 25 24 24 24 24 24 24 23 23 23 24 24 24 24 24 25 24 23 23 23 22 22 22 23 23 23 23 24 24 24 24 25
25 26 26 26 26 26 26 26 25 25 25 24 24 24 24 23 23 23 22 22 22 23 24 24 24 24 24 24 23 23 23 22 22 22 23 23 23 24 23 23 23 24 24
26 26 26 26 26 25 24 25 24 24 24 23 23 22 22 22 22 22 22 22 22 23 23 23 23 23 22 22 22 22 23 23 22 22 22 22 22 22 22 23 23 23 23
26 26 26 25 24 23 23 23 24 23 23 22 22 22 22 22 22 22 22 22 23 23 22 22 22 22 21 21 21 22 22 22 22 22 22 21 21 22 23 22 22 22 23
26 25 25 24 23 23 23 22 23 22 22 22 22 22 22 22 22 22 22 22 22 22 22 21 21 21 21 21 21 21 22 22 22 22 22 22 22 22 23 23 22 22 23
25 25 24 24 23 22 22 22 22 22 22 22 21 20 20 21 20 20 20 20 21 21 21 20 20 21 21 21 22 22 22 21 21 22 22 22 23 23 23 23 23 23 23
26 25 24 24 23 22 22 23 23 22 21 21 20 20 20 19 19 18 18 18 18 19 20 20 20 20 20 21 22 22 21 21 21 22 22 22 22 23 23 23 23 23 22
25 25 24 23 23 23 23 23 23 22 22 20 20 19 19 19 19 18 18 18 19 19 19 19 19 20 20 20 20 20 20 20 21 22 22 22 22 23 22 22 22 22 22
25 24 23 23 23 23 23 23 24 23 21 20 19 18 19 19 18 18 19 19 19 19 19 19 19 19 19 19 20 20 21 21 21 22 21 22 22 22 21 20 20 20 21
23 22 22 23 23 23 23 22 21 21 21 21 20 20 19 19 19 19 19 19 19 19 19 19 19 19 20 20 20 20 21 21 20 20 21 21 21 20 20 20 20 21 21
22 22 22 22 22 22 22 21 20 20 20 20 20 20 20 19 19 19 19 19 19 19 20 20 19 20 20 20 20 20 19 19 18 19 19 20 21 21 21 21 22 21 21
Wind_Direction
307 305 301 298 294 293 292 292 291 289 288 287 286 285 284 283 282 283 282 281 282 282 281 281 281 282 284 283 281 280 279 275 273 271 273 273 273 273 273 273 276 275 275
306 303 299 297 295 294 292 291 291 290 288 287 286 284 283 282 282 281 281 280 280 281 281 280 280 281 282 282 281 278 276 274 273 269 270 272 272 273 273 273 275 275 275
304 304 302 300 297 295 292 290 290 290 288 286 284 284 282 280 280 281 281 280 280 280 280 280 280 280 281 281 280 278 275 274 273 270 269 271 272 272 272 273 276 276 274
304 303 304 302 299 295 293 292 291 290 288 285 283 282 282 279 278 279 280 279 278 278 278 279 278 277 279 280 280 279 276 276 274 272 270 270 270 270 270 271 274 274 273
304 302 302 301 299 295 295 293 292 291 288 286 284 282 282 281 279 279 279 279 277 276 277 278 277 277 277 278 279 278 277 276 274 272 271 272 270 270 272 272 272 273 273
303 302 300 299 298 298 297 296 293 291 289 286 284 283 283 283 281 280 280 280 279 278 278 279 278 279 280 279 278 278 278 278 276 273 272 273 273 273 273 272 273 273 273
301 300 299 299 299 299 298 296 294 292 289 287 286 285 284 283 283 282 281 280 279 278 279 280 280 282 282 280 279 278 279 279 278 275 274 274 274 275 274 273 272 270 270
298 298 299 299 298 297 296 296 294 292 291 289 287 286 285 284 285 284 282 281 279 278 279 280 281 281 282 280 281 279 279 279 278 276 275 275 274 273 274 273 272 269 268
297 297 297 297 297 296 296 296 296 293 291 289 287 285 284 284 284 284 283 282 281 279 277 278 280 280 282 282 281 280 280 279 277 276 275 275 276 275 274 272 270 270 271
296 297 296 295 295 295 295 295 294 293 291 289 288 286 285 284 284 284 283 283 282 280 279 279 279 280 281 282 282 280 279 277 276 277 278 278 277 277 275 273 270 269 271
294 294 294 294 294 294 293 294 294 293 292 290 288 287 285 284 283 284 283 283 283 282 280 280 279 278 279 279 279 277 276 275 276 276 277 278 277 277 276 273 270 268 268
294 295 293 292 291 292 293 293 293 293 292 292 290 288 286 284 283 282 282 282 282 282 281 281 279 278 278 278 278 277 275 273 274 276 278 278 277 276 275 273 270 268 268
292 293 293 292 292 292 293 292 291 290 291 292 289 288 286 285 284 282 282 282 282 281 280 281 280 279 278 278 278 276 274 273 274 276 279 279 277 276 276 275 272 269 268
292 292 292 293 295 294 293 294 294 293 292 290 289 287 286 284 283 283 283 283 283 283 281 279 279 279 278 277 277 274 273 274 276 278 281 280 278 276 275 274 272 270 267
292 293 294 294 294 295 296 298 296 295 295 293 290 288 286 285 283 284 286 286 285 284 282 279 279 278 275 274 275 275 275 276 278 279 280 280 279 278 277 276 274 270 268
291 293 294 296 297 298 298 299 299 296 295 295 292 290 287 285 285 287 289 288 286 286 282 281 278 273 273 276 276 275 276 277 280 280 279 279 280 279 277 276 275 272 269
290 292 295 298 298 298 299 300 298 297 296 296 295 294 291 288 287 288 289 289 288 286 283 282 280 276 275 277 278 277 276 276 279 280 281 281 281 280 279 276 273 272 270
289 292 295 298 298 298 299 300 298 298 297 296 295 295 294 290 287 287 288 288 287 285 284 282 279 277 277 278 279 279 279 278 278 278 279 279 280 282 284 281 276 273 271
288 290 294 296 297 298 299 299 298 298 298 298 297 295 294 293 290 288 288 288 288 286 285 283 279 278 280 279 279 280 280 281 281 280 279 280 282 282 282 282 279 276 275
288 290 292 295 297 299 299 299 298 298 298 299 300 298 296 293 292 290 289 289 288 288 285 282 279 278 278 279 280 280 281 281 281 279 280 281 282 282 282 280 279 278 278
286 288 290 293 296 299 299 299 298 296 297 299 300 300 298 297 297 297 295 292 290 288 286 284 281 279 278 279 280 281 281 281 280 281 282 281 281 282 283 281 279 279 279
285 287 289 290 292 294 296 298 298 298 298 299 300 298 297 299 301 301 297 295 294 291 288 287 284 282 282 280 281 282 280 281 283 284 284 283 283 283 282 281 280 280 279
284 285 286 287 289 290 292 296 299 300 298 298 298 298 302 303 300 299 298 296 294 294 293 290 288 286 285 283 283 284 283 282 282 283 283 283 284 284 283 281 280 279 278
282 283 285 287 290 291 291 292 294 298 300 301 301 302 301 299 299 297 295 295 294 295 294 293 291 288 287 287 286 285 285 283 283 283 283 282 284 285 283 281 281 280 279
281 283 285 286 287 290 291 293 295 298 300 300 301 301 300 299 298 297 295 294 293 293 293 294 293 290 288 288 286 286 287 285 284 283 282 282 282 282 281 280 280 281 281
281 283 287 285 286 289 290 292 296 299 299 299 300 300 299 299 298 298 297 295 293 293 292 293 293 291 290 289 287 286 286 285 285 285 283 282 283 282 280 280 281 282 283
Height
5849 5848 5846 5845 5843 5842 5841 5840 5839 5837 5836 5835 5834 5833 5832 5831 5830 5830 5829 5828 5828 5827 5826 5826 5825 5824 5823 5823 5822 5822 5821 5821 5821 5821 5820 5820 5820 5820 5819 5818 5818 5817 5816
5845 5843 5842 5840 5839 5837 5836 5835 5833 5832 5830 5829 5828 5827 5826 5825 5825 5824 5823 5822 5822 5821 5820 5819 5819 5818 5817 5817 5816 5815 5815 5815 5815 5815 5815 5814 5814 5814 5813 5813 5813 5812 5811
5841 5839 5837 5835 5834 5832 5831 5829 5828 5826 5825 5824 5823 5821 5820 5819 5818 5817 5817 5816 5815 5815 5814 5813 5812 5812 5811 5810 5809 5809 5809 5808 5808 5808 5809 5809 5808 5808 5807 5807 5807 5806 5806
5836 5834 5832 5830 5828 5827 5825 5823 5822 5820 5819 5817 5816 5815 5814 5813 5812 5811 5810 5809 5808 5808 5807 5806 5806 5805 5805 5804 5803 5802 5802 5801 5801 5801 5802 5802 5801 5801 5800 5801 5801 5800 5800
5830 5828 5826 5825 5823 5821 5819 5818 5816 5814 5813 5811 5810 5809 5807 5806 5805 5804 5803 5802 5802 5801 5800 5800 5799 5798 5798 5797 5796 5795 5795 5794 5794 5794 5794 5794 5794 5794 5794 5794 5794 5794 5794
5825 5823 5821 5819 5817 5815 5814 5812 5810 5808 5807 5805 5803 5802 5801 5800 5799 5798 5797 5796 5795 5794 5794 5793 5791 5791 5790 5789 5788 5788 5787 5786 5786 5786 5787 5787 5787 5788 5787 5787 5787 5788 5788
5820 5818 5816 5813 5811 5810 5808 5806 5804 5802 5800 5798 5797 5795 5794 5793 5792 5791 5790 5789 5788 5787 5787 5786 5785 5784 5783 5782 5781 5780 5779 5779 5779 5779 5780 5780 5780 5780 5780 5780 5780 5781 5781
5814 5812 5810 5808 5806 5804 5802 5800 5797 5795 5793 5792 5790 5789 5787 5786 5785 5784 5783 5782 5781 5780 5780 5779 5778 5777 5776 5774 5773 5772 5772 5772 5772 5772 5772 5772 5772 5772 5772 5773 5773 5773 5773
5808 5806 5804 5802 5800 5797 5795 5793 5791 5789 5787 5785 5783 5782 5781 5779 5778 5777 5775 5774 5774 5773 5772 5772 5771 5770 5769 5767 5766 5765 5765 5764 5764 5764 5764 5764 5764 5764 5765 5765 5765 5765 5765
5801 5799 5797 5794 5793 5791 5789 5787 5784 5782 5781 5779 5777 5775 5774 5772 5771 5769 5768 5767 5766 5766 5765 5764 5763 5763 5761 5760 5759 5758 5757 5757 5757 5757 5757 5757 5757 5757 5757 5757 5757 5758 5758
5794 5792 5789 5787 5785 5784 5782 5780 5778 5776 5774 5772 5770 5768 5766 5765 5764 5762 5761 5760 5759 5758 5757 5756 5756 5755 5754 5753 5752 5751 5750 5750 5750 5750 5750 5750 5750 5750 5749 5749 5750 5750 5750
5787 5785 5783 5780 5778 5777 5775 5773 5771 5768 5766 5764 5762 5761 5759 5758 5756 5755 5753 5752 5751 5750 5750 5749 5748 5747 5746 5745 5744 5744 5744 5744 5744 5743 5743 5742 5742 5742 5742 5742 5742 5742 5742
5780 5778 5776 5774 5772 5770 5768 5765 5762 5760 5758 5756 5755 5753 5752 5750 5749 5748 5746 5745 5743 5742 5742 5741 5740 5739 5738 5737 5737 5737 5737 5737 5736 5736 5735 5735 5734 5734 5734 5734 5734 5734 5734
5773 5771 5769 5767 5765 5763 5760 5758 5756 5753 5751 5749 5747 5746 5745 5743 5741 5740 5739 5737 5736 5735 5734 5733 5732 5731 5730 5730 5730 5729 5729 5729 5729 5729 5728 5727 5727 5726 5726 5726 5726 5726 5727
5766 5764 5762 5760 5758 5757 5754 5752 5749 5747 5744 5742 5741 5739 5737 5736 5734 5733 5731 5730 5729 5728 5726 5725 5725 5724 5723 5723 5723 5723 5723 5723 5722 5722 5721 5720 5720 5719 5719 5719 5718 5718 5719
5760 5758 5755 5753 5751 5749 5747 5745 5742 5740 5738 5735 5734 5732 5730 5729 5727 5726 5724 5723 5722 5721 5719 5718 5717 5716 5716 5717 5716 5716 5716 5716 5715 5715 5714 5713 5713 5712 5712 5711 5711 5711 5711
5753 5751 5749 5747 5745 5743 5740 5738 5736 5733 5731 5729 5727 5725 5723 5722 5721 5719 5718 5716 5715 5714 5713 5712 5711 5710 5710 5710 5709 5709 5709 5709 5708 5708 5707 5706 5706 5705 5704 5704 5703 5703 5703
5746 5745 5742 5740 5738 5736 5734 5732 5729 5727 5725 5722 5720 5718 5717 5715 5714 5712 5711 5710 5708 5707 5706 5705 5704 5704 5703 5703 5702 5702 5701 5701 5701 5700 5700 5699 5699 5698 5697 5696 5695 5696 5696
5738 5737 5735 5733 5731 5729 5727 5725 5723 5721 5719 5717 5714 5712 5710 5708 5707 5706 5704 5703 5702 5701 5700 5699 5698 5697 5697 5696 5695 5695 5694 5694 5693 5693 5693 5692 5692 5691 5691 5690 5689 5689 5689
5731 5730 5728 5727 5725 5723 5721 5719 5717 5715 5713 5711 5709 5706 5704 5702 5701 5699 5698 5696 5695 5694 5693 5692 5692 5691 5690 5690 5689 5689 5688 5687 5687 5686 5686 5685 5685 5684 5684 5683 5682 5682 5681
5724 5723 5722 5721 5719 5717 5715 5713 5711 5709 5707 5704 5702 5700 5698 5697 5695 5693 5691 5690 5689 5688 5687 5686 5685 5685 5684 5684 5683 5682 5682 5681 5680 5680 5679 5678 5678 5677 5677 5676 5675 5674 5674
5716 5716 5715 5714 5713 5711 5709 5707 5705 5703 5700 5698 5696 5694 5693 5691 5690 5688 5686 5685 5684 5683 5681 5680 5680 5679 5678 5677 5677 5676 5675 5675 5674 5673 5672 5671 5670 5670 5669 5668 5667 5667 5666
5710 5709 5709 5707 5706 5705 5703 5702 5699 5697 5695 5693 5691 5689 5687 5686 5684 5683 5682 5680 5679 5678 5676 5675 5674 5673 5672 5671 5670 5670 5669 5668 5667 5666 5665 5664 5663 5662 5661 5661 5660 5659 5659
5704 5703 5702 5701 5700 5698 5697 5696 5694 5692 5689 5687 5686 5684 5682 5680 5678 5677 5676 5675 5674 5672 5671 5670 5668 5667 5666 5665 5664 5663 5663 5661 5660 5659 5658 5657 5656 5655 5655 5654 5653 5652 5652
5697 5696 5695 5694 5693 5692 5691 5689 5687 5686 5684 5682 5680 5678 5676 5674 5673 5671 5670 5669 5667 5666 5665 5664 5663 5662 5661 5659 5658 5657 5656 5655 5654 5653 5652 5651 5650 5649 5648 5647 5646 5646 5645
5690 5690 5689 5688 5687 5686 5685 5683 5682 5680 5678 5676 5674 5672 5670 5668 5667 5665 5664 5663 5661 5660 5659 5658 5657 5656 5654 5653 5652 5651 5650 5648 5647 5646 5645 5645 5644 5643 5642 5641 5640 5639 5638